PBO Station Position Time Series. Reference Frame : NAM14
Format Version,1.1.0
4-character ID,USC1
Station name,USouthernCASCIGN
Begin Date, 1996-01-01
End Date, 2015-07-06
Release Date, 2019-08-30
Reference position, 34.0239503503 North Latitude, -118.2851146714 East Longitude, 21.91511 meters elevation,
Date, North (mm), East (mm), Vertical (mm), North Std. Deviation (mm), East Std. Deviation (mm),              Vertical Std. Deviation (mm), Quality,
1996-01-01,0.00, 0.00, 0.00, 3.85, 3.66, 14.89, repro,
1996-01-02,2.47, 0.73, -0.54, 3.78, 3.56, 14.46, repro,
1996-01-03,0.89, -0.12, 15.80, 3.42, 3.04, 12.62, repro,
1996-01-04,1.06, -1.19, 10.76, 3.35, 3.10, 12.42, repro,
1996-01-05,2.20, -1.82, 6.25, 3.55, 3.34, 13.81, repro,
1996-01-06,0.73, -3.58, -1.37, 3.14, 2.86, 11.60, repro,
1996-01-07,0.62, -4.40, 4.96, 3.61, 3.46, 14.88, repro,
1996-01-08,1.85, -1.98, 3.16, 3.85, 3.61, 15.34, repro,
1996-01-09,1.21, -1.55, -2.66, 3.39, 3.12, 13.78, repro,
1996-01-10,4.86, -3.06, 4.82, 3.66, 3.44, 14.31, repro,
1996-01-11,3.75, -3.70, 11.08, 3.35, 3.02, 12.66, repro,
1996-01-12,4.24, -2.90, 11.08, 3.50, 3.14, 13.32, repro,
1996-01-13,1.38, -2.61, 9.55, 3.19, 2.87, 11.72, repro,
1996-01-14,0.76, -2.37, 7.33, 3.40, 3.05, 12.38, repro,
1996-01-15,0.26, -0.58, 1.72, 3.28, 3.00, 12.51, repro,
1996-01-16,6.03, 0.51, 12.45, 3.30, 3.00, 12.83, repro,
1996-01-17,-0.84, -0.66, 20.74, 3.81, 3.61, 15.02, repro,
1996-01-18,3.20, -3.40, 3.51, 3.53, 3.57, 16.23, repro,
1996-01-19,4.53, -1.66, 14.70, 3.04, 2.86, 11.70, repro,
1996-01-20,4.08, -2.72, 1.55, 3.56, 3.61, 14.63, repro,
1996-01-21,1.48, 1.15, 21.86, 3.02, 2.87, 11.67, repro,
1996-01-22,-0.11, -2.92, -0.22, 3.35, 3.27, 13.04, repro,
1996-01-23,1.56, -1.35, 3.93, 3.40, 3.26, 13.67, repro,
1996-01-24,0.03, -1.09, 6.29, 3.39, 3.22, 13.14, repro,
1996-01-25,3.32, 2.42, 14.91, 3.01, 2.78, 11.66, repro,
1996-01-26,3.34, 1.19, 21.15, 3.85, 4.04, 17.39, repro,
1996-01-27,1.58, -0.01, 2.61, 3.42, 3.44, 14.18, repro,
1996-01-28,-0.06, -3.48, -14.30, 3.54, 3.50, 14.17, repro,
1996-01-29,1.39, 0.31, 1.01, 3.29, 3.35, 14.43, repro,
1996-01-30,1.33, -0.03, -4.95, 3.76, 3.62, 15.12, repro,
1996-01-31,6.16, 2.83, 1.26, 3.83, 4.06, 16.96, repro,
1996-02-01,-0.71, -1.19, 4.62, 3.29, 3.05, 13.40, repro,
1996-02-02,1.83, 1.44, -0.15, 3.28, 3.13, 13.31, repro,
1996-02-03,2.33, 0.19, 2.73, 3.23, 3.11, 13.69, repro,
1996-02-04,-2.88, 2.31, -21.72, 3.45, 3.34, 14.13, repro,
1996-02-05,0.30, 5.17, -2.81, 3.29, 3.08, 13.21, repro,
1996-02-06,-3.66, 3.56, -3.02, 4.79, 5.20, 21.78, repro,
1996-02-08,4.42, -18.25, -1.78, 5.47, 6.04, 25.42, repro,
1996-02-10,3.01, 0.88, -5.65, 3.26, 2.88, 12.74, repro,
1996-02-11,2.16, 3.60, -2.16, 4.15, 4.70, 19.42, repro,
1996-02-12,2.99, 2.93, -7.37, 4.18, 4.32, 18.17, repro,
1996-02-13,2.17, -0.69, -3.37, 3.27, 2.96, 12.14, repro,
1996-02-14,1.39, -0.15, -0.22, 3.12, 2.82, 11.63, repro,
1996-02-15,0.85, -0.65, -7.75, 2.94, 2.67, 11.58, repro,
1996-02-16,-0.10, 2.07, 7.47, 3.69, 3.68, 16.29, repro,
1996-02-17,-0.42, 1.09, 8.53, 3.18, 2.86, 12.73, repro,
1996-02-18,4.08, 0.62, 6.73, 3.45, 3.26, 13.76, repro,
1996-02-19,1.41, -1.64, 9.51, 3.06, 2.89, 12.34, repro,
1996-02-20,1.61, -2.11, 3.92, 3.35, 3.09, 13.32, repro,
1996-02-21,-1.12, 0.49, 8.32, 3.10, 2.89, 12.08, repro,
1996-02-22,2.79, -1.30, -6.77, 4.04, 4.25, 18.71, repro,
1996-02-23,2.22, 3.16, 5.76, 3.70, 3.73, 15.95, repro,
1996-02-24,0.96, 1.15, 4.61, 3.56, 3.42, 15.38, repro,
1996-02-25,1.38, -3.63, -1.17, 3.11, 2.85, 11.75, repro,
1996-02-26,0.03, -2.39, -6.76, 4.37, 4.31, 18.52, repro,
1996-02-27,1.79, -2.06, -3.09, 3.38, 3.20, 13.99, repro,
1996-02-28,2.73, 1.41, 0.88, 3.70, 3.69, 15.91, repro,
1996-02-29,2.47, -1.42, 11.89, 2.96, 2.78, 11.98, repro,
1996-03-01,1.22, 0.26, 0.77, 2.98, 2.76, 12.10, repro,
1996-03-02,2.32, -0.08, 5.75, 3.17, 2.90, 12.85, repro,
1996-03-03,0.16, 0.55, -0.22, 3.08, 2.79, 12.61, repro,
1996-03-04,3.29, -1.47, 8.73, 2.96, 2.73, 11.56, repro,
1996-03-05,0.25, 0.44, -3.99, 3.22, 2.91, 12.86, repro,
1996-03-06,0.96, -2.99, -1.75, 3.15, 2.79, 12.44, repro,
1996-03-07,1.97, -2.84, -1.99, 2.94, 2.76, 12.70, repro,
1996-03-08,-3.96, -1.46, -4.55, 4.64, 4.92, 21.31, repro,
1996-03-09,0.14, -3.72, -4.61, 3.51, 3.46, 14.67, repro,
1996-03-10,5.21, -2.93, -0.92, 3.93, 3.78, 16.22, repro,
1996-03-11,1.35, -3.22, 0.30, 3.60, 3.41, 15.12, repro,
1996-03-12,1.67, -0.90, 6.73, 2.91, 2.59, 11.47, repro,
1996-03-13,-2.84, -0.07, 8.52, 3.83, 3.99, 17.26, repro,
1996-03-14,3.86, -6.32, -1.27, 3.69, 3.54, 15.95, repro,
1996-03-15,1.44, -0.39, 3.89, 3.01, 2.84, 12.36, repro,
1996-03-16,3.07, -1.43, 9.57, 2.99, 2.79, 12.03, repro,
1996-03-17,1.01, 1.57, 0.33, 3.90, 3.83, 16.37, repro,
1996-03-19,1.39, -1.59, 8.06, 3.01, 2.72, 11.98, repro,
1996-03-20,-0.85, -4.48, 3.75, 3.91, 3.64, 17.44, repro,
1996-03-21,3.49, -0.77, 14.51, 3.56, 3.33, 15.12, repro,
1996-03-22,2.53, -3.00, 2.20, 3.10, 2.75, 11.74, repro,
1996-03-23,4.06, -3.10, 8.08, 3.04, 2.68, 12.00, repro,
1996-03-24,2.64, -5.92, -4.34, 3.19, 2.79, 12.53, repro,
1996-03-25,1.28, -1.59, 2.37, 2.93, 2.65, 10.98, repro,
1996-03-26,0.20, -1.76, 1.62, 3.69, 3.51, 16.16, repro,
1996-03-27,0.30, -4.01, 14.26, 3.45, 3.24, 13.85, repro,
1996-03-28,2.05, -1.08, -0.80, 2.88, 2.57, 10.97, repro,
1996-03-29,-0.46, -3.74, -0.41, 2.85, 2.53, 11.29, repro,
1996-03-30,1.38, -1.10, 1.99, 2.85, 2.57, 10.99, repro,
1996-03-31,2.11, 0.54, 5.97, 3.34, 3.11, 13.06, repro,
1996-04-01,0.69, -0.14, 15.86, 2.86, 2.55, 10.97, repro,
1996-04-02,1.43, -1.29, 14.14, 3.16, 2.78, 11.53, repro,
1996-04-03,-1.11, -0.47, 16.59, 3.30, 3.11, 13.56, repro,
1996-04-04,2.55, 0.10, 0.30, 2.78, 2.44, 10.51, repro,
1996-04-05,-1.61, 0.65, -4.13, 3.65, 3.52, 16.10, repro,
1996-04-06,3.45, 0.65, 0.10, 2.81, 2.55, 10.75, repro,
1996-04-07,2.08, 0.66, 10.25, 2.83, 2.65, 10.76, repro,
1996-04-08,3.55, -0.71, 1.93, 2.80, 2.51, 10.68, repro,
1996-04-09,3.16, 0.92, -1.00, 2.80, 2.57, 10.92, repro,
1996-04-10,4.03, -1.39, 10.26, 2.80, 2.57, 10.76, repro,
1996-04-11,0.23, -1.15, 2.00, 3.34, 3.19, 13.13, repro,
1996-04-12,-19.67, 51.72, -45.70, 45.76, 125.08, 83.86, repro,
1996-04-13,1.35, -1.61, -7.64, 6.15, 5.86, 24.64, repro,
1996-04-14,18.74, -3.79, 25.96, 69.70, 107.04, 271.78, repro,
1996-04-15,2.14, -1.08, 6.79, 2.91, 2.64, 11.41, repro,
1996-04-16,0.60, -1.66, -6.65, 3.47, 3.26, 15.62, repro,
1996-04-17,0.94, 0.95, 11.36, 3.03, 2.79, 11.85, repro,
1996-04-18,1.44, -5.49, -0.53, 3.71, 3.52, 16.05, repro,
1996-04-19,1.47, -3.00, 9.51, 4.16, 4.30, 19.93, repro,
1996-04-20,3.01, 0.40, 1.44, 2.99, 2.64, 11.83, repro,
1996-04-21,2.07, 0.66, -5.41, 3.38, 3.26, 13.71, repro,
1996-04-22,1.60, -0.03, 2.71, 3.80, 3.44, 16.66, repro,
1996-04-23,1.32, -0.91, 4.57, 2.89, 2.77, 12.07, repro,
1996-04-24,4.43, -2.13, 13.27, 3.64, 3.38, 15.43, repro,
1996-04-25,2.50, -4.82, 34.86, 5.26, 5.44, 23.76, repro,
1996-04-26,3.12, -1.27, 8.24, 3.01, 2.71, 11.98, repro,
1996-04-27,2.85, 0.35, 8.89, 2.87, 2.53, 11.46, repro,
1996-04-28,3.23, 1.54, 8.78, 3.36, 2.97, 14.02, repro,
1996-04-29,6.31, 0.33, 4.20, 3.69, 3.41, 14.94, repro,
1996-04-30,-0.16, -1.45, 4.29, 3.51, 3.18, 14.91, repro,
1996-05-01,-2.56, 0.61, 28.41, 4.02, 4.16, 15.79, repro,
1996-05-02,1.90, 0.39, -1.68, 2.89, 2.60, 11.87, repro,
1996-05-03,2.16, -2.42, -1.77, 2.84, 2.53, 11.36, repro,
1996-05-04,2.57, -1.95, -0.42, 2.95, 2.69, 11.55, repro,
1996-05-05,3.85, -2.17, 1.85, 2.84, 2.52, 11.29, repro,
1996-05-06,1.45, -1.05, 2.89, 2.79, 2.54, 11.30, repro,
1996-05-07,2.22, -0.34, 5.48, 2.90, 2.52, 11.35, repro,
1996-05-08,0.33, -1.09, -5.37, 2.85, 2.57, 11.22, repro,
1996-05-09,1.29, -0.46, 6.65, 3.05, 2.72, 12.17, repro,
1996-05-10,0.78, 0.96, -13.18, 3.58, 3.42, 14.84, repro,
1996-05-11,2.89, -2.01, 6.09, 2.96, 2.65, 11.77, repro,
1996-05-12,1.10, 0.12, -1.66, 4.45, 4.00, 19.07, repro,
1996-05-13,0.83, 1.26, 8.62, 4.67, 4.38, 20.70, repro,
1996-05-14,0.86, 2.03, 8.34, 3.15, 2.83, 12.06, repro,
1996-05-15,1.03, -0.04, 14.51, 3.09, 2.70, 11.75, repro,
1996-05-16,0.32, 1.55, 8.96, 2.91, 2.74, 11.58, repro,
1996-05-17,-1.24, -1.24, 13.39, 3.47, 3.60, 15.17, repro,
1996-05-18,1.69, 1.64, 0.11, 2.86, 2.69, 11.41, repro,
1996-05-19,1.46, -2.17, -4.06, 3.39, 3.46, 15.30, repro,
1996-05-20,0.53, -0.56, 13.44, 2.99, 2.76, 12.12, repro,
1996-05-21,2.58, -1.04, 14.66, 3.06, 2.79, 12.01, repro,
1996-05-22,0.60, -2.65, 17.84, 3.01, 2.72, 12.04, repro,
1996-05-23,-0.03, -4.20, 4.50, 3.06, 2.68, 11.89, repro,
1996-05-24,-2.42, -1.58, -3.43, 3.09, 2.76, 12.51, repro,
1996-05-25,2.04, -0.00, 7.70, 3.60, 3.13, 14.56, repro,
1996-05-26,2.42, -2.16, 5.87, 3.14, 2.83, 12.41, repro,
1996-05-27,2.89, -1.21, 5.55, 2.95, 2.71, 11.37, repro,
1996-05-28,2.30, -1.75, -2.68, 2.91, 2.62, 11.36, repro,
1996-05-29,0.96, -0.87, -0.59, 3.49, 3.16, 14.20, repro,
1996-05-30,0.96, -1.82, 0.95, 3.39, 3.13, 13.83, repro,
1996-05-31,2.79, -4.77, -12.97, 4.72, 5.00, 21.80, repro,
1996-06-01,1.03, -3.42, 2.90, 3.41, 3.18, 14.21, repro,
1996-06-02,-0.29, -3.09, -8.36, 4.88, 4.28, 20.14, repro,
1996-06-04,1.22, -1.43, -3.06, 3.34, 2.92, 12.99, repro,
1996-06-05,0.71, -4.77, -0.67, 3.93, 3.57, 17.27, repro,
1996-06-06,2.34, -0.31, -3.61, 3.69, 3.43, 15.39, repro,
1996-06-07,0.73, -3.41, 19.07, 3.27, 2.88, 13.31, repro,
1996-06-08,3.78, -3.79, 13.73, 3.35, 3.09, 13.83, repro,
1996-06-09,2.20, -2.79, -5.38, 3.26, 3.05, 13.76, repro,
1996-06-10,2.70, -1.02, 6.77, 4.09, 3.94, 19.47, repro,
1996-06-11,0.17, -1.03, 14.30, 3.27, 2.92, 14.13, repro,
1996-06-12,5.09, -2.43, 6.46, 3.87, 3.93, 16.78, repro,
1996-06-13,4.23, -2.59, 3.08, 3.04, 2.82, 12.65, repro,
1996-06-14,0.93, 0.45, -16.89, 3.58, 3.69, 15.74, repro,
1996-06-15,0.24, -1.20, -4.85, 3.16, 2.86, 13.29, repro,
1996-06-16,-14.34, 20.08, 9.41, 51.55, 84.56, 295.10, repro,
1996-06-17,1.62, -1.65, 0.74, 5.28, 4.94, 19.33, repro,
1996-06-18,-0.05, -2.29, 28.19, 3.99, 3.75, 16.88, repro,
1996-06-19,0.65, 0.11, 12.08, 3.24, 2.85, 12.43, repro,
1996-06-20,-0.20, -0.33, -13.31, 3.23, 2.92, 13.76, repro,
1996-06-21,-6.82, 3.52, 76.72, 35.43, 67.32, 140.70, repro,
1996-06-22,-5.28, -2.60, -1.25, 4.76, 4.54, 20.70, repro,
1996-06-23,-0.29, -4.22, 4.30, 3.13, 2.89, 12.20, repro,
1996-06-24,-0.48, -0.49, 17.27, 4.16, 4.12, 19.15, repro,
1996-06-25,-0.80, -2.28, 14.25, 3.20, 3.00, 13.55, repro,
1996-06-26,-0.21, -3.21, 16.04, 4.67, 4.74, 22.04, repro,
1996-06-27,-9.71, -2.70, 36.80, 13.73, 14.42, 76.36, repro,
1996-06-29,-1.44, -1.07, 6.18, 3.13, 2.84, 12.87, repro,
1996-06-30,-0.75, 0.54, 7.47, 3.50, 3.30, 14.60, repro,
1996-07-01,1.23, -3.06, -5.37, 3.44, 3.04, 13.98, repro,
1996-07-02,-0.97, -1.72, 9.45, 3.55, 3.13, 14.00, repro,
1996-07-03,1.56, 0.79, 11.27, 5.52, 4.91, 23.59, repro,
1996-07-05,3.09, 3.61, -4.19, 6.22, 5.43, 25.28, repro,
1996-07-07,0.08, 0.10, -6.34, 4.34, 3.93, 17.49, repro,
1996-07-08,2.26, -2.38, 18.33, 3.42, 3.32, 13.84, repro,
1996-07-09,-2.99, 0.40, 12.40, 5.25, 5.46, 21.14, repro,
1996-07-10,1.88, 0.15, -9.06, 3.85, 3.51, 17.06, repro,
1996-07-11,2.67, -1.54, 18.46, 5.77, 5.44, 24.11, repro,
1996-07-12,-0.71, -2.26, -1.23, 3.55, 3.45, 15.50, repro,
1996-07-13,1.34, -3.03, 15.17, 3.19, 2.85, 12.48, repro,
1996-07-14,6.02, -0.30, 18.67, 4.86, 4.40, 20.54, repro,
1996-07-15,2.12, -2.07, -7.81, 3.70, 3.21, 15.33, repro,
1996-07-16,1.16, -1.00, 7.34, 3.11, 2.67, 11.98, repro,
1996-07-17,0.80, -1.30, 1.99, 3.54, 3.12, 14.81, repro,
1996-07-18,1.77, -4.11, -0.54, 3.05, 2.67, 11.98, repro,
1996-07-19,0.50, -6.85, -12.18, 6.18, 5.23, 24.60, repro,
1996-07-20,-0.75, -4.05, 14.32, 3.34, 3.04, 12.88, repro,
1996-07-21,0.65, -1.85, 5.59, 3.09, 2.79, 12.29, repro,
1996-07-22,-0.97, -2.57, -12.17, 2.94, 2.61, 11.58, repro,
1996-07-23,-1.92, -6.41, -11.01, 2.76, 2.44, 11.29, repro,
1996-07-24,-3.94, -5.39, 7.84, 3.02, 2.66, 12.67, repro,
1996-07-25,0.71, -3.58, 3.54, 2.55, 2.32, 10.54, repro,
1996-07-26,-0.96, -3.85, 1.87, 2.84, 2.60, 12.11, repro,
1996-07-27,-2.08, -3.45, -0.06, 2.69, 2.42, 10.83, repro,
1996-07-28,-1.08, -4.63, 2.75, 2.98, 2.68, 12.15, repro,
1996-07-29,3.97, 2.05, -34.75, 42.00, 108.79, 145.73, repro,
1996-07-30,-2.58, -5.59, 1.07, 3.17, 3.05, 13.79, repro,
1996-07-31,-0.79, -3.66, 7.09, 2.64, 2.41, 11.17, repro,
1996-08-01,-3.55, -4.80, -3.47, 3.39, 3.16, 14.89, repro,
1996-08-03,-2.79, -4.93, 3.69, 2.85, 2.62, 12.02, repro,
1996-08-04,-1.61, -4.78, 11.03, 2.95, 2.79, 12.25, repro,
1996-08-05,-1.81, -3.64, 4.37, 2.92, 2.69, 12.86, repro,
1996-08-06,-4.76, -5.39, 10.43, 2.79, 2.52, 11.56, repro,
1996-08-07,-1.86, -5.06, 5.11, 2.93, 2.74, 12.40, repro,
1996-08-08,-2.50, -5.60, -13.81, 2.85, 2.63, 11.63, repro,
1996-08-10,-1.63, -4.88, 7.52, 2.81, 2.52, 11.25, repro,
1996-08-11,0.82, -0.99, 9.52, 2.78, 2.58, 11.27, repro,
1996-08-12,-1.36, -1.44, 12.19, 3.00, 2.56, 12.33, repro,
1996-08-13,-0.20, -2.49, -0.07, 2.79, 2.50, 11.32, repro,
1996-08-14,-0.58, -3.74, -6.40, 3.33, 2.85, 13.91, repro,
1996-08-15,0.58, -2.68, 16.95, 3.04, 2.77, 12.30, repro,
1996-08-16,-1.98, -2.30, 22.27, 4.24, 4.96, 21.53, repro,
1996-08-17,1.86, -2.03, 2.20, 3.29, 2.87, 13.41, repro,
1996-08-18,0.73, -2.35, 8.05, 4.95, 4.14, 23.83, repro,
1996-08-19,-0.63, -3.74, 10.78, 3.27, 2.72, 13.47, repro,
1996-08-20,-3.42, -4.30, 1.25, 3.32, 2.79, 14.12, repro,
1996-08-21,-0.40, -1.69, 4.38, 2.91, 2.63, 11.85, repro,
1996-08-22,0.78, -2.21, 9.25, 2.75, 2.41, 10.95, repro,
1996-08-23,-1.97, -4.71, 1.98, 2.81, 2.52, 11.31, repro,
1996-08-24,-1.24, -3.63, -5.51, 3.12, 2.57, 12.54, repro,
1996-08-25,-2.05, -3.91, -6.74, 2.76, 2.50, 11.56, repro,
1996-08-26,-0.45, -3.03, 4.05, 2.81, 2.58, 11.66, repro,
1996-08-27,-0.51, -1.40, 2.61, 2.83, 2.60, 11.76, repro,
1996-08-28,-1.18, -2.00, 12.97, 2.74, 2.47, 11.21, repro,
1996-08-29,0.15, -2.93, -6.11, 3.03, 2.70, 12.36, repro,
1996-08-30,-1.15, -1.30, -1.98, 2.85, 2.65, 11.50, repro,
1996-08-31,-0.85, -0.31, -1.66, 2.65, 2.43, 10.69, repro,
1996-09-01,-1.04, -2.05, -0.15, 2.71, 2.46, 10.99, repro,
1996-09-02,-0.50, -2.51, 2.61, 2.81, 2.55, 11.43, repro,
1996-09-03,-1.51, -3.79, 0.43, 2.83, 2.49, 11.77, repro,
1996-09-04,2.42, -4.39, 9.34, 2.99, 2.75, 12.80, repro,
1996-09-05,0.13, -3.78, -3.71, 2.79, 2.59, 11.70, repro,
1996-09-06,-0.01, -3.66, 1.99, 2.92, 2.62, 12.21, repro,
1996-09-07,-1.57, -3.12, 5.91, 2.82, 2.54, 11.38, repro,
1996-09-08,1.51, -3.72, 0.04, 2.88, 2.62, 12.09, repro,
1996-09-09,-0.35, -3.26, 4.08, 2.95, 2.73, 12.42, repro,
1996-09-10,-0.12, -4.67, 1.83, 2.99, 2.72, 12.63, repro,
1996-09-11,1.26, -3.35, 4.15, 2.99, 2.83, 12.83, repro,
1996-09-12,0.01, -2.78, 13.11, 2.89, 2.58, 11.90, repro,
1996-09-13,-1.24, -1.92, 15.29, 2.74, 2.56, 11.49, repro,
1996-09-14,-2.44, -6.30, -11.16, 2.66, 2.39, 11.07, repro,
1996-09-15,-2.46, -2.48, 6.77, 2.91, 2.46, 11.59, repro,
1996-09-16,-0.06, -4.38, 1.32, 2.79, 2.59, 11.40, repro,
1996-09-17,-0.59, -2.04, 8.07, 2.77, 2.44, 11.11, repro,
1996-09-18,-1.52, -2.30, -4.23, 2.71, 2.47, 10.87, repro,
1996-09-19,-0.99, -3.63, -6.25, 2.74, 2.55, 11.43, repro,
1996-09-20,-0.53, -4.35, -1.60, 2.90, 2.64, 11.85, repro,
1996-09-21,-0.96, -4.83, 1.37, 2.75, 2.43, 11.38, repro,
1996-09-22,-0.36, -0.91, 2.65, 2.64, 2.36, 10.55, repro,
1996-09-23,0.40, -2.12, 1.37, 2.81, 2.59, 11.65, repro,
1996-09-24,-0.53, -2.10, 4.40, 2.82, 2.43, 11.41, repro,
1996-09-25,-3.75, -2.93, -7.47, 2.50, 2.29, 10.31, repro,
1996-09-26,-3.13, -4.55, -7.59, 2.58, 2.34, 10.58, repro,
1996-09-27,-3.18, -4.71, 0.34, 2.66, 2.50, 11.51, repro,
1996-09-28,-1.91, -4.11, -7.46, 2.64, 2.33, 11.01, repro,
1996-09-29,0.21, -1.83, 0.23, 2.70, 2.47, 10.76, repro,
1996-09-30,0.17, -2.58, 0.25, 2.80, 2.47, 11.11, repro,
1996-10-01,0.53, -2.03, 10.35, 2.72, 2.50, 10.72, repro,
1996-10-02,-0.21, -2.88, -5.21, 2.61, 2.40, 10.49, repro,
1996-10-03,-0.05, -0.66, 7.19, 2.67, 2.41, 10.58, repro,
1996-10-04,-0.39, -2.82, -4.74, 2.71, 2.47, 10.82, repro,
1996-10-05,0.09, -2.79, 3.69, 2.70, 2.48, 11.15, repro,
1996-10-06,-0.42, -3.61, -0.89, 2.82, 2.55, 11.01, repro,
1996-10-07,-0.79, -0.98, 1.98, 2.74, 2.41, 10.94, repro,
1996-10-08,-1.92, -1.86, 2.68, 3.49, 2.96, 13.77, repro,
1996-10-09,-0.34, -3.16, 2.07, 2.79, 2.54, 11.13, repro,
1996-10-10,-0.85, -2.10, -1.61, 2.64, 2.39, 10.67, repro,
1996-10-11,-1.12, -0.20, -5.28, 3.33, 2.91, 14.08, repro,
1996-10-12,-1.67, -1.53, 2.19, 2.70, 2.39, 10.69, repro,
1996-10-13,-1.59, -2.93, 7.88, 2.66, 2.41, 10.51, repro,
1996-10-14,-1.17, -3.80, 6.59, 2.71, 2.54, 10.93, repro,
1996-10-15,-0.71, -2.16, 3.92, 2.68, 2.46, 10.57, repro,
1996-10-16,-1.87, -2.03, 3.06, 2.67, 2.49, 10.87, repro,
1996-10-17,-1.16, -2.71, 1.43, 2.76, 2.48, 11.21, repro,
1996-10-18,-3.69, -5.32, -7.45, 2.46, 2.25, 10.25, repro,
1996-10-19,-2.74, -4.03, 1.43, 3.04, 2.76, 12.55, repro,
1996-10-20,-5.01, -5.32, 5.66, 2.53, 2.38, 10.53, repro,
1996-10-21,0.81, -2.09, 0.84, 2.60, 2.33, 10.37, repro,
1996-10-22,0.36, -1.42, 2.73, 2.96, 2.76, 12.37, repro,
1996-10-23,-0.33, -2.52, 5.48, 2.66, 2.41, 11.04, repro,
1996-10-24,-4.37, -3.24, 4.04, 2.51, 2.23, 10.27, repro,
1996-10-25,-0.22, -0.01, 13.59, 2.66, 2.39, 10.86, repro,
1996-10-26,-1.49, -3.52, 5.15, 2.67, 2.46, 10.73, repro,
1996-10-27,1.75, -0.13, 4.32, 2.63, 2.40, 10.56, repro,
1996-10-28,-0.03, -3.03, 3.20, 2.70, 2.46, 10.93, repro,
1996-10-29,-4.01, -4.60, -6.73, 2.47, 2.23, 10.22, repro,
1996-10-30,-4.97, -5.17, -3.21, 2.85, 2.56, 11.48, repro,
1996-10-31,-1.56, -4.95, 7.47, 2.71, 2.35, 10.92, repro,
1996-11-01,-0.87, -1.13, 2.45, 2.69, 2.42, 10.94, repro,
1996-11-02,1.88, -5.03, 1.24, 2.84, 2.51, 11.27, repro,
1996-11-03,-0.86, -2.38, -2.79, 2.76, 2.42, 10.99, repro,
1996-11-04,1.23, -3.40, -3.41, 3.05, 2.56, 11.96, repro,
1996-11-05,-2.22, -5.25, -0.91, 2.78, 2.49, 11.33, repro,
1996-11-06,-0.25, -2.42, -3.25, 3.29, 2.69, 13.38, repro,
1997-12-31,0.66, -5.91, -23.17, 2.38, 2.17, 9.73, repro,
1998-01-01,-0.31, -7.75, -16.08, 2.42, 2.24, 9.99, repro,
1998-01-02,2.06, -6.48, -20.69, 2.56, 2.36, 10.49, repro,
1998-01-03,4.80, -7.06, -17.08, 2.41, 2.18, 10.10, repro,
1998-01-04,-1.00, -7.65, -21.08, 2.32, 2.16, 9.58, repro,
1998-01-05,2.05, -8.09, -29.26, 2.50, 2.42, 10.38, repro,
1998-01-06,2.02, -9.95, -29.29, 2.50, 2.43, 10.49, repro,
1998-01-07,1.34, -6.84, -14.64, 2.60, 2.50, 11.17, repro,
1998-01-08,2.41, -8.61, -27.28, 2.68, 2.55, 11.46, repro,
1998-01-09,3.61, -6.38, -19.52, 2.31, 2.14, 9.42, repro,
1998-01-10,2.56, -8.98, -22.58, 2.48, 2.39, 10.14, repro,
1998-01-11,2.46, -7.28, -25.93, 2.38, 2.26, 9.66, repro,
1998-01-12,0.83, -5.65, -21.69, 2.53, 2.29, 10.49, repro,
1998-01-13,4.00, -7.52, -26.63, 2.53, 2.37, 10.48, repro,
1998-01-14,4.01, -8.58, -22.74, 2.26, 2.05, 9.14, repro,
1998-01-15,3.15, -8.76, -14.35, 2.39, 2.22, 9.89, repro,
1998-01-16,1.88, -5.29, -23.88, 2.73, 2.77, 11.85, repro,
1998-01-17,3.35, -8.01, -25.36, 2.49, 2.19, 10.14, repro,
1998-01-18,2.17, -6.53, -18.13, 2.44, 2.21, 10.15, repro,
1998-01-19,1.33, -8.79, -21.11, 2.34, 2.09, 9.30, repro,
1998-01-20,1.79, -8.05, -24.80, 2.30, 2.09, 9.34, repro,
1998-01-21,4.08, -7.63, -20.77, 2.40, 2.14, 9.69, repro,
1998-01-22,2.65, -6.46, -19.99, 2.40, 2.24, 10.12, repro,
1998-01-23,3.01, -7.32, -34.45, 2.47, 2.14, 9.96, repro,
1998-01-24,3.18, -6.75, -27.24, 2.49, 2.20, 10.05, repro,
1998-01-25,3.91, -7.09, -14.49, 2.30, 2.05, 9.19, repro,
1998-01-26,2.07, -7.36, -34.94, 2.31, 2.09, 9.31, repro,
1998-01-27,3.33, -5.82, -22.38, 2.27, 2.07, 9.10, repro,
1998-01-28,2.28, -5.92, -14.19, 2.50, 2.21, 10.41, repro,
1998-01-29,1.29, -4.46, -22.34, 2.41, 2.07, 9.55, repro,
1998-01-30,2.23, -7.13, -22.05, 2.45, 2.17, 10.05, repro,
1998-01-31,0.66, -5.99, -13.66, 2.36, 2.14, 9.45, repro,
1998-02-01,1.42, -6.57, -12.28, 2.42, 2.10, 9.62, repro,
1998-02-02,2.60, -5.63, -17.11, 2.29, 2.07, 9.24, repro,
1998-02-03,2.37, -6.85, -12.28, 2.33, 2.15, 9.66, repro,
1998-02-04,1.68, -9.87, -20.59, 2.33, 2.05, 9.31, repro,
1998-02-05,2.00, -6.57, -24.56, 2.42, 2.20, 9.94, repro,
1998-02-06,-0.31, -6.37, -10.14, 2.32, 2.11, 9.32, repro,
1998-02-07,0.80, -6.03, -21.57, 2.34, 2.14, 9.55, repro,
1998-02-08,2.11, -5.80, -25.37, 2.33, 2.12, 9.54, repro,
1998-02-09,3.71, -6.77, -16.78, 2.39, 2.22, 10.18, repro,
1998-02-10,3.16, -6.72, -22.44, 2.37, 2.12, 9.67, repro,
1998-02-11,0.61, -9.32, -22.76, 2.51, 2.29, 10.72, repro,
1998-02-12,3.85, -5.19, -12.46, 2.36, 2.23, 9.94, repro,
1998-02-13,2.96, -6.45, -23.74, 2.30, 2.07, 9.37, repro,
1998-02-14,3.45, -6.34, -19.76, 2.41, 2.18, 10.31, repro,
1998-02-15,0.15, -9.33, -31.08, 2.34, 2.11, 9.60, repro,
1998-02-16,0.26, -5.88, -18.99, 2.32, 2.14, 9.53, repro,
1998-02-17,4.67, -6.59, -23.79, 2.49, 2.19, 9.99, repro,
1998-02-18,4.18, -7.22, -25.05, 2.56, 2.34, 10.54, repro,
1998-02-19,3.62, -5.53, -24.23, 2.43, 2.29, 10.37, repro,
1998-02-20,2.51, -4.00, -33.14, 2.82, 2.47, 11.70, repro,
1998-02-21,1.62, -6.97, -28.62, 2.30, 2.05, 9.22, repro,
1998-02-22,3.32, -7.17, -27.69, 2.46, 2.19, 10.19, repro,
1998-02-23,4.37, -6.55, -24.36, 2.26, 2.09, 9.25, repro,
1998-02-24,5.47, -7.90, -24.44, 2.28, 2.05, 9.28, repro,
1998-02-25,4.62, -6.11, -29.88, 2.29, 2.03, 9.19, repro,
1998-02-26,4.50, -8.36, -9.97, 2.37, 2.33, 10.33, repro,
1998-02-27,2.06, -5.56, -16.91, 2.30, 2.13, 9.37, repro,
1998-02-28,3.72, -5.24, -18.92, 2.39, 2.13, 9.69, repro,
1998-03-01,4.19, -4.23, -28.00, 2.56, 2.36, 10.35, repro,
1998-03-02,4.07, -4.89, -24.55, 2.29, 2.05, 9.23, repro,
1998-03-03,4.22, -5.28, -23.71, 2.37, 2.04, 9.50, repro,
1998-03-04,4.03, -5.80, -13.05, 2.21, 1.96, 8.89, repro,
1998-03-05,2.91, -8.83, -21.31, 2.21, 1.97, 8.72, repro,
1998-03-06,4.19, -8.49, -21.86, 2.26, 2.00, 9.03, repro,
1998-03-07,0.97, -7.69, -12.18, 2.24, 2.06, 9.06, repro,
1998-03-08,4.63, -5.75, -28.17, 2.31, 2.16, 9.28, repro,
1998-03-09,4.30, -5.92, -25.43, 2.32, 2.13, 9.33, repro,
1998-03-10,3.85, -7.92, -27.03, 2.39, 2.18, 9.79, repro,
1998-03-11,3.81, -6.27, -30.49, 2.34, 2.17, 9.64, repro,
1998-03-12,4.11, -5.14, -17.52, 2.29, 2.11, 9.37, repro,
1998-03-13,2.00, -3.04, -25.96, 2.28, 2.06, 9.09, repro,
1998-03-14,3.81, -6.26, -16.34, 2.29, 2.08, 9.26, repro,
1998-03-15,3.28, -5.91, -21.19, 2.30, 2.06, 9.00, repro,
1998-03-16,1.03, -6.40, -33.47, 2.33, 2.08, 9.14, repro,
1998-03-17,4.17, -5.36, -22.87, 2.27, 2.07, 9.15, repro,
1998-03-18,5.30, -5.42, -16.26, 2.26, 2.03, 9.14, repro,
1998-03-19,4.71, -5.52, -20.27, 2.25, 2.03, 9.05, repro,
1998-03-20,3.07, -5.81, -26.80, 2.34, 2.15, 9.48, repro,
1998-03-21,2.78, -6.90, -23.85, 2.23, 2.00, 8.96, repro,
1998-03-22,3.87, -6.31, -34.45, 2.32, 2.06, 9.36, repro,
1998-03-23,4.26, -6.40, -22.91, 2.41, 2.12, 9.50, repro,
1998-03-24,6.22, -4.81, -16.78, 2.34, 2.15, 9.44, repro,
1998-03-25,4.05, -4.15, -29.72, 2.32, 2.10, 9.29, repro,
1998-03-26,3.85, -7.10, -20.00, 2.37, 2.12, 9.46, repro,
1998-03-27,2.87, -8.16, -21.47, 2.29, 2.04, 9.01, repro,
1998-03-28,2.14, -6.02, -19.09, 2.34, 2.12, 9.28, repro,
1998-03-29,2.42, -5.60, -24.22, 2.35, 2.11, 9.32, repro,
1998-03-30,2.61, -5.27, -21.36, 2.30, 2.13, 9.32, repro,
1998-03-31,3.62, -4.94, -26.59, 2.36, 2.18, 9.58, repro,
1998-04-01,3.69, -6.49, -27.74, 2.35, 2.09, 9.42, repro,
1998-04-02,4.70, -6.46, -25.93, 2.38, 2.17, 9.62, repro,
1998-04-03,5.63, -7.46, -20.94, 2.36, 2.11, 9.30, repro,
1998-04-04,2.68, -7.21, -14.55, 2.36, 2.11, 9.25, repro,
1998-04-05,3.05, -7.63, -30.47, 2.31, 2.06, 9.17, repro,
1998-04-06,3.53, -4.83, -32.98, 2.39, 2.19, 9.56, repro,
1998-04-07,0.19, -8.76, -28.10, 2.60, 2.49, 10.70, repro,
1998-04-08,4.42, -6.98, -29.40, 2.51, 2.28, 9.96, repro,
1998-04-09,4.86, -6.16, -28.57, 2.44, 2.21, 9.78, repro,
1998-04-10,3.90, -7.34, -21.87, 2.45, 2.19, 9.66, repro,
1998-04-11,0.96, -5.86, -29.88, 2.55, 2.28, 10.09, repro,
1998-04-12,2.47, -7.01, -31.94, 2.46, 2.14, 9.50, repro,
1998-04-13,1.42, -7.97, -32.72, 2.36, 2.10, 9.35, repro,
1998-04-14,4.47, -7.00, -33.25, 2.34, 2.09, 9.19, repro,
1998-04-15,2.37, -8.04, -22.67, 2.38, 2.07, 9.29, repro,
1998-04-16,2.15, -7.82, -20.45, 2.37, 2.10, 9.40, repro,
1998-04-17,2.03, -8.61, -26.96, 2.53, 2.33, 10.22, repro,
1998-04-18,4.67, -6.15, -22.49, 2.29, 2.06, 9.20, repro,
1998-04-19,2.23, -6.29, -27.04, 2.26, 2.06, 9.22, repro,
1998-04-20,3.41, -6.93, -24.44, 2.31, 2.16, 9.67, repro,